EHI
3 3 3 5 8 9 9 8 9 9 8 7 7 7 6 5 3 2 1 2 4 4 5 5 6 7 7 5 3 2 3 4 4 3 2 1 0 1 2 4 5 5 5
3 3 2 3 5 6 6 6 6 6 5 5 5 5 5 4 2 1 0 1 2 3 3 3 3 3 3 2 1 1 2 3 3 2 1 0 0 0 1 2 2 2 3
1 2 2 1 2 3 4 4 4 3 3 3 3 3 3 1 0 0 0 0 1 1 1 1 1 0 0 0 0 0 1 1 1 1 0 0 0 0 0 0 0 0 1
0 1 1 1 2 3 3 4 3 3 3 3 3 3 2 1 0 0 0 0 0 0 0 0 0 0 0 0 0 0 1 0 0 0 0 0 0 0 0 0 0 0 0
0 0 0 1 3 4 3 4 4 4 3 3 3 3 3 2 1 0 0 0 0 0 0 0 0 0 0 0 0 0 0 0 0 0 0 0 0 0 0 0 0 0 0
0 0 0 1 2 3 3 4 5 4 4 3 3 3 3 3 2 1 0 0 0 0 0 0 0 0 0 0 1 0 0 0 0 0 0 0 0 0 0 0 0 0 0
0 0 0 0 1 1 2 3 4 4 3 3 3 3 2 2 2 1 0 0 0 0 0 0 0 0 0 0 0 0 0 0 0 0 0 0 0 0 0 0 0 0 0
0 0 0 0 0 0 1 1 2 2 2 2 2 1 1 1 1 0 0 0 0 0 0 0 0 0 0 0 0 0 0 0 0 0 0 0 0 0 0 0 0 0 0
0 0 0 0 0 0 0 0 1 1 1 1 1 0 0 0 0 0 0 0 0 0 0 0 0 0 0 0 0 0 0 0 0 0 0 0 0 0 0 0 0 0 0
0 0 0 0 0 0 0 0 0 0 0 0 0 0 0 0 0 0 0 0 0 0 0 0 0 0 0 0 0 0 0 0 0 0 0 0 0 0 0 0 0 0 0
0 0 0 0 0 0 0 0 0 0 0 0 0 0 0 0 0 0 0 0 0 0 0 0 0 0 0 0 0 0 0 0 0 0 0 0 0 0 0 0 0 0 0
0 0 0 0 0 0 0 0 0 0 0 0 0 0 0 0 0 0 0 0 0 0 0 0 0 0 0 0 0 0 0 0 0 0 0 0 0 0 0 0 0 0 0
0 0 0 0 0 0 0 0 0 0 0 0 0 0 0 0 0 0 0 0 0 0 0 0 0 0 0 0 0 0 0 0 0 0 0 0 0 0 0 0 0 0 0
0 0 0 0 0 0 0 0 0 0 0 0 0 0 0 0 0 0 0 0 0 0 0 0 0 0 0 0 0 0 0 0 0 0 0 0 0 0 0 0 0 0 0
0 0 0 0 0 0 0 0 0 0 0 0 0 0 0 0 0 0 0 0 0 0 0 0 0 0 0 0 0 0 0 0 0 0 0 0 0 0 0 0 0 0 0
0 0 0 0 0 0 0 0 0 0 0 0 0 0 0 0 0 0 0 0 0 0 0 0 0 0 0 0 0 0 0 0 0 0 0 0 0 0 0 0 0 0 0
0 0 0 0 0 0 0 0 0 0 0 0 0 0 0 0 0 0 0 0 0 0 0 0 0 0 0 0 0 0 0 0 0 0 0 0 0 0 0 0 0 0 0
0 0 0 0 0 0 0 0 0 0 0 0 0 0 0 0 0 0 0 0 0 0 0 0 0 0 0 0 0 0 0 0 0 0 0 0 0 0 0 0 0 0 0
0 0 0 0 0 0 0 0 0 0 0 0 0 0 0 0 0 0 0 0 0 0 0 0 0 0 0 0 0 0 0 0 0 0 0 0 0 0 0 0 0 0 0
0 0 0 0 0 0 0 0 0 0 0 0 0 0 0 0 0 0 0 0 0 0 0 0 0 0 0 0 0 0 0 0 0 0 0 0 0 0 0 0 0 0 0
0 0 0 0 0 0 0 0 0 0 0 0 0 0 0 0 0 0 0 0 0 0 0 0 0 0 0 0 0 0 0 0 0 0 0 0 0 0 0 0 0 0 0
0 0 0 0 0 0 0 0 0 0 0 0 0 0 0 0 0 0 0 0 0 0 0 0 0 0 0 0 0 0 0 0 0 0 0 0 0 0 0 0 0 0 0
0 0 0 0 0 0 0 0 0 0 0 0 0 0 0 0 0 0 0 0 0 0 0 0 0 0 0 0 0 0 0 0 0 0 0 0 0 0 0 0 0 0 0
0 0 0 0 0 0 0 0 0 0 0 0 0 0 0 0 0 0 0 0 0 0 0 0 0 0 0 0 0 0 0 0 0 0 0 0 0 0 0 0 0 0 0
0 0 0 0 0 0 0 0 0 0 0 0 0 0 0 0 0 0 0 0 0 0 0 0 0 0 0 0 0 0 0 0 0 0 0 0 0 0 0 0 0 0 0
0 0 0 0 0 0 0 0 0 0 0 0 0 0 0 0 0 0 0 0 0 0 0 0 0 0 0 0 0 0 0 0 0 0 0 0 0 0 0 0 0 0 0
Wind_Speed
3 4 4 4 5 5 5 4 4 3 3 2 2 2 2 2 2 1 1 1 1 1 1 2 1 1 1 2 3 2 3 3 2 2 2 3 4 5 6 6 6 8 10
2 3 3 3 4 4 4 4 3 3 2 2 1 0 0 1 1 2 2 2 2 2 2 2 1 2 2 2 3 3 2 2 2 2 1 2 2 4 6 5 7 8 7
3 3 3 2 2 3 3 3 2 2 1 1 2 2 2 2 3 3 3 3 3 3 2 2 2 2 2 2 3 3 3 3 3 3 3 3 4 2 2 5 6 7 6
4 3 3 3 3 3 3 3 3 2 1 1 2 1 1 1 2 2 2 4 3 3 3 2 2 2 2 2 3 2 3 3 3 2 3 3 3 3 1 2 3 5 6
4 3 3 3 3 3 3 2 2 1 1 1 1 1 1 2 2 2 3 3 3 3 3 2 2 2 2 2 2 2 2 2 3 2 2 3 2 2 3 2 2 2 3
3 2 1 2 2 2 2 1 1 1 1 1 0 1 2 3 3 3 3 3 3 3 3 2 2 2 2 2 3 3 3 3 3 3 2 2 2 2 3 3 3 2 3
2 2 2 3 3 4 3 3 3 2 3 3 2 2 3 3 3 3 3 3 3 3 4 3 3 3 3 4 3 3 3 3 3 3 3 3 3 3 2 3 2 2 2
3 3 3 3 3 3 3 3 3 2 3 3 3 3 3 2 2 3 3 3 3 4 4 4 4 4 4 4 4 3 4 3 4 4 3 2 3 3 3 3 3 2 1
3 4 4 4 3 3 3 2 2 2 3 3 3 3 3 3 4 4 4 3 4 4 4 4 4 5 5 5 4 4 5 4 4 4 4 3 3 3 3 3 3 4 4
3 3 3 3 2 2 1 2 2 1 2 2 3 3 3 4 4 4 5 5 5 4 4 4 5 5 5 5 5 4 5 5 4 3 4 3 2 3 3 3 3 3 4
3 2 2 1 2 2 2 2 2 2 3 3 3 4 4 4 4 4 5 5 5 5 5 5 5 5 5 5 5 6 5 6 5 5 5 5 3 3 3 3 3 3 3
3 2 1 2 2 2 3 3 3 3 3 3 4 4 5 5 5 5 6 5 6 5 5 5 5 6 6 5 6 7 6 7 7 6 5 5 4 4 3 3 3 3 3
3 2 1 1 2 2 3 2 3 4 4 4 4 5 5 6 6 7 7 6 6 6 6 5 6 6 6 5 6 7 7 7 8 8 7 7 6 5 4 4 4 3 3
2 1 0 2 3 3 2 3 4 4 5 4 5 6 6 7 7 7 7 7 7 7 7 6 6 7 7 6 6 6 7 8 8 8 8 8 8 8 6 5 5 4 3
1 1 1 2 3 3 3 3 4 5 5 5 6 6 7 7 7 7 7 7 7 8 7 6 7 7 6 7 7 6 7 7 8 7 7 8 11 11 9 6 5 5 4
1 1 2 2 3 3 3 4 5 6 5 6 7 7 7 7 7 7 7 7 7 7 7 7 7 7 8 9 11 8 6 6 7 7 7 8 10 12 13 12 11 10 7
1 1 2 2 2 3 3 4 5 6 6 6 7 7 7 7 8 9 8 8 7 7 7 7 7 8 9 12 13 13 7 6 6 6 6 7 8 9 8 10 12 12 12
1 1 2 2 2 3 4 4 5 6 6 7 7 7 7 8 8 8 8 8 7 7 7 8 8 7 9 12 12 12 7 6 7 7 7 7 6 8 8 7 6 7 8
2 2 2 2 2 4 4 5 6 6 6 7 8 8 8 9 9 9 9 8 7 7 7 7 7 7 9 11 12 11 5 5 7 7 7 8 8 10 11 8 7 6 6
2 1 1 1 3 4 4 4 6 6 7 8 8 8 8 8 9 9 8 7 7 7 7 7 7 7 8 10 11 10 4 5 5 5 6 10 10 11 12 9 8 7 6
1 1 1 2 4 4 4 5 6 7 8 8 8 9 9 8 9 7 7 7 7 7 6 7 7 7 7 9 10 9 4 5 4 5 5 5 11 13 13 10 8 10 8
1 1 1 3 4 4 4 5 6 7 7 7 8 9 9 9 8 7 7 7 6 6 6 6 7 5 5 6 6 8 7 6 5 4 4 5 9 12 12 9 9 11 9
2 1 1 3 5 5 4 5 6 7 7 8 9 9 9 8 7 7 7 6 5 4 5 4 5 5 4 4 5 6 7 7 5 4 6 6 8 8 7 9 11 9 5
2 2 2 3 5 5 5 5 6 6 6 8 9 8 8 8 8 6 5 5 5 4 4 4 4 5 4 3 2 2 2 3 3 3 4 5 6 4 5 5 6 5 6
2 2 2 4 5 6 5 6 5 5 7 8 8 8 7 7 7 7 5 5 5 5 4 4 4 4 5 4 4 2 2 1 2 2 1 1 2 2 2 2 3 4 4
2 2 3 4 5 5 5 6 5 5 6 7 7 6 6 6 6 6 7 7 6 8 7 7 6 5 6 6 4 3 2 3 3 2 2 3 3 4 5 5 4 4 5
Wind_Direction
102 95 89 91 87 76 73 68 63 49 51 45 33 20 357 345 339 329 326 292 261 243 222 229 223 207 216 248 258 244 235 230 200 212 254 267 240 229 222 215 206 209 209
99 110 113 98 97 101 99 92 84 69 60 57 49 37 345 328 328 341 336 311 286 269 252 236 234 221 218 238 246 237 236 239 194 181 191 261 287 258 232 218 211 212 208
161 165 149 145 139 138 142 134 131 115 90 68 51 29 23 8 3 348 329 314 301 281 262 237 228 227 212 231 244 232 219 231 230 199 186 189 216 249 257 227 218 208 202
176 185 176 172 180 187 171 161 166 160 155 110 88 87 81 309 277 280 291 307 313 305 285 262 239 233 216 224 245 245 229 212 232 240 224 216 188 181 241 284 239 218 207
183 190 201 194 185 180 174 179 170 187 209 157 146 137 256 252 267 285 298 301 301 299 294 279 253 237 222 225 242 254 250 218 219 225 232 233 228 202 180 227 250 253 229
177 169 140 98 77 71 83 90 82 350 334 346 310 263 278 288 304 307 299 295 290 288 289 274 262 258 245 235 236 231 235 236 229 227 220 215 205 199 193 204 211 221 245
133 94 90 80 63 52 44 50 56 13 357 5 354 327 305 297 292 292 289 291 289 284 275 261 241 241 244 244 236 234 235 231 234 232 231 221 220 200 186 189 198 210 252
93 104 108 91 79 74 54 50 46 17 358 355 333 325 320 302 286 278 275 277 272 272 270 261 250 243 239 244 236 237 237 233 234 241 236 234 229 207 186 181 173 188 236
108 104 97 96 93 79 71 66 52 19 353 345 335 337 332 316 301 294 283 274 272 279 286 279 267 258 249 244 238 237 240 234 231 229 230 238 234 210 198 191 185 180 196
111 102 100 99 91 86 63 39 37 5 331 336 333 344 322 312 306 307 305 292 283 281 283 281 275 271 260 248 237 239 239 232 233 226 224 229 241 210 199 195 189 190 186
135 127 122 95 69 46 24 8 358 348 330 320 311 314 304 301 303 298 294 293 290 289 281 274 270 268 264 252 237 236 236 234 236 233 224 227 227 209 193 190 183 187 181
137 133 105 59 30 2 344 344 336 326 308 302 306 305 302 303 301 294 288 285 284 283 278 276 273 267 268 258 241 238 238 232 232 231 223 226 221 216 197 182 184 184 176
115 86 52 16 337 323 325 326 318 309 303 305 308 307 304 300 294 286 283 281 279 278 276 272 269 268 266 260 252 243 240 234 231 225 219 219 211 214 212 191 182 181 181
111 98 5 307 302 306 308 305 305 303 307 308 305 301 295 290 287 286 283 279 276 275 272 265 262 262 262 261 256 248 243 238 235 229 219 213 205 207 207 202 188 173 168
107 114 275 288 300 309 308 304 304 304 305 305 302 294 291 291 292 292 289 284 278 280 271 266 264 260 261 260 253 244 246 237 234 230 223 217 213 207 200 200 189 176 170
164 261 298 308 311 307 303 309 306 303 303 303 299 297 297 299 298 294 291 289 285 280 274 268 264 261 266 267 264 253 242 236 233 231 229 227 223 215 205 201 190 183 177
206 278 297 290 285 282 287 297 297 302 310 307 302 299 298 299 296 298 300 292 287 281 279 273 266 261 260 261 259 256 241 229 229 229 225 231 224 210 202 202 200 197 194
210 279 288 284 275 279 290 298 304 310 311 307 304 303 302 301 300 299 296 292 285 282 279 276 269 264 267 266 258 253 240 227 225 223 220 218 219 209 194 193 198 198 201
191 228 247 249 275 290 297 309 313 312 312 309 307 306 305 304 304 302 298 292 287 285 280 275 271 267 270 267 260 250 231 226 228 227 222 215 213 209 194 185 194 202 213
184 223 270 292 299 293 302 315 310 312 309 307 305 304 303 302 300 296 293 289 285 282 285 283 274 266 267 267 260 245 220 225 230 231 227 221 213 208 197 189 188 200 206
187 214 314 300 287 290 307 312 309 304 299 302 306 307 304 300 295 292 291 294 293 294 293 292 288 279 270 271 262 241 213 212 221 225 222 218 213 208 203 197 197 206 194
235 282 308 295 293 297 308 308 303 295 301 307 310 309 307 305 310 304 300 300 299 299 300 301 302 293 284 274 264 245 231 212 210 223 221 219 215 210 203 201 207 202 186
243 259 270 293 299 298 295 297 294 300 308 313 311 309 309 307 303 301 302 305 304 299 300 304 303 303 301 295 282 263 248 233 215 218 217 213 212 208 204 208 206 193 177
245 252 281 297 297 297 296 286 291 304 310 311 310 309 311 310 310 307 299 296 296 297 299 302 302 303 305 306 309 288 263 240 220 213 216 206 196 190 188 191 199 188 180
243 243 262 278 286 295 300 297 299 311 314 312 310 310 308 306 309 308 299 291 276 261 271 282 284 296 302 297 293 280 264 238 215 175 159 160 162 175 182 185 189 187 179
232 254 273 281 287 296 301 302 304 309 313 314 313 309 308 307 307 310 313 305 292 289 278 271 270 271 268 286 294 289 266 238 209 175 183 195 196 196 194 193 192 190 191